Hugo, OK

4:11 PM CDT on May 28, 2017 (GMT -0500)
Stamper Municipal

Weather History for KHHW - November, 2012

Change the Weather History Date:

Sunday, November 25, 2012

  Actual Average Record
Temperature  
Mean Temperature 51 °F -  
Max Temperature 71 °F 62 °F 70 °F (2015)
Min Temperature 31 °F 40 °F 33 °F (2014)
Degree Days  
Heating Degree Days 14    
Growing Degree Days 1 (Base 50)    
Moisture  
Dew Point 35 °F    
Average Humidity 56    
Maximum Humidity 81    
Minimum Humidity 30    
Precipitation  
Precipitation 0.00 in - - ()
Sea Level Pressure  
Sea Level Pressure 29.96 in    
Wind  
Wind Speed 5 mph ()    
Max Wind Speed 16 mph    
Max Gust Speed 23 mph    
Visibility 10.0 miles    
Events      
Averages and records for this station are not official NWS values.
T = Trace of Precipitation, MM = Missing Value Source: Averaged Metar Reports

Daily Weather History Graph

Daily Weather History Graph

Search for Another Location

Airport or City:

Trip Planner

Search our weather history database for the weather conditions in past years. The results will help you decide how hot, cold, wet, or windy it might be!

Date:

Astronomy

Nov. 25, 2012 Rise Set
Actual Time 7:04 AM CST 5:13 PM CST
Civil Twilight 6:37 AM CST 5:41 PM CST
Nautical Twilight 6:06 AM CST 6:11 PM CST
Astronomical Twilight 5:36 AM CST 6:41 PM CST
Moon 3:27 PM CST (11/25) 4:24 AM CST (11/25)
Length of Visible Light 11h 03m
Length of Day
10h 09m
Waxing Gibbous, 93% of the Moon is Illuminated
Nov 25
Waxing Gibbous
Nov 28
Full
Dec 6
Last Quarter
Dec 13
New
Dec 19
First Quarter

Hourly Weather History & Observations

Time (CST) Temp. Windchill Dew Point Humidity Pressure Visibility Wind Dir Wind Speed Gust Speed Precip Events Conditions
12:15 AM 37.4 °F 34.9 °F 22.6 °F 55% 30.12 in 10.0 mi ESE 3.5 mph - N/A   Clear
12:35 AM 37.4 °F - 22.6 °F 55% 30.12 in 10.0 mi Calm Calm - N/A   Clear
12:55 AM 35.8 °F 30.9 °F 22.5 °F 58% 30.10 in 10.0 mi SSE 5.8 mph - N/A   Clear
1:15 AM 37.6 °F 34.0 °F 23.7 °F 57% 30.10 in 10.0 mi SSE 4.6 mph - N/A   Clear
1:35 AM 36.7 °F 34.1 °F 23.9 °F 60% 30.09 in 10.0 mi SE 3.5 mph - N/A   Clear
1:55 AM 36.3 °F 33.7 °F 24.6 °F 63% 30.08 in 10.0 mi SSE 3.5 mph - N/A   Clear
2:15 AM 37.8 °F 35.3 °F 25.5 °F 61% 30.07 in 10.0 mi SSE 3.5 mph - N/A   Clear
2:35 AM 37.8 °F 34.2 °F 25.7 °F 62% 30.06 in 10.0 mi SSE 4.6 mph - N/A   Clear
2:55 AM 37.4 °F 33.8 °F 25.7 °F 63% 30.06 in 10.0 mi SSE 4.6 mph - N/A   Clear
3:15 AM 37.6 °F 34.0 °F 26.4 °F 64% 30.06 in 10.0 mi SSE 4.6 mph - N/A   Clear
3:35 AM 37.4 °F 34.9 °F 26.6 °F 65% 30.05 in 10.0 mi SSE 3.5 mph - N/A   Clear
3:55 AM 36.1 °F 33.5 °F 25.7 °F 66% 30.05 in 10.0 mi SE 3.5 mph - N/A   Clear
4:15 AM 34.9 °F 30.8 °F 25.7 °F 69% 30.04 in 10.0 mi ESE 4.6 mph - N/A   Clear
4:35 AM 34.2 °F 30.0 °F 25.7 °F 71% 30.04 in 10.0 mi ESE 4.6 mph - N/A   Clear
4:55 AM 33.3 °F 28.9 °F 25.5 °F 73% 30.03 in 10.0 mi ESE 4.6 mph - N/A   Clear
5:15 AM 32.4 °F 26.9 °F 25.3 °F 75% 30.03 in 10.0 mi ESE 5.8 mph - N/A   Clear
5:35 AM 32.0 °F 26.4 °F 25.5 °F 77% 30.03 in 10.0 mi ESE 5.8 mph - N/A   Clear
5:55 AM 32.2 °F 27.7 °F 25.9 °F 78% 30.02 in 10.0 mi ESE 4.6 mph - N/A   Clear
6:15 AM 31.5 °F 25.8 °F 25.7 °F 79% 30.03 in 10.0 mi East 5.8 mph - N/A   Clear
6:35 AM 32.0 °F 26.4 °F 26.2 °F 79% 30.03 in 10.0 mi ESE 5.8 mph - N/A   Clear
6:55 AM 31.8 °F 26.2 °F 26.4 °F 80% 30.03 in 10.0 mi ESE 5.8 mph - N/A   Clear
7:15 AM 32.4 °F 27.9 °F 27.1 °F 81% 30.03 in 10.0 mi ESE 4.6 mph - N/A   Clear
7:35 AM 33.1 °F 27.7 °F 27.3 °F 79% 30.03 in 10.0 mi ESE 5.8 mph - N/A   Clear
7:55 AM 34.9 °F 29.0 °F 28.4 °F 77% 30.04 in 10.0 mi ESE 6.9 mph - N/A   Clear
8:15 AM 37.6 °F 32.3 °F 29.3 °F 72% 30.03 in 10.0 mi ESE 6.9 mph - N/A   Clear
8:35 AM 41.4 °F 36.8 °F 30.4 °F 65% 30.03 in 10.0 mi SE 6.9 mph - N/A   Clear
8:55 AM 44.6 °F 42.2 °F 30.7 °F 58% 30.04 in 10.0 mi SSE 4.6 mph - N/A   Clear
9:15 AM 47.3 °F - 30.9 °F 53% 30.03 in 10.0 mi SSE 5.8 mph - N/A   Clear
9:35 AM 49.3 °F - 31.5 °F 50% 30.03 in 10.0 mi SSE 5.8 mph - N/A   Clear
9:55 AM 52.3 °F - 31.8 °F 46% 30.03 in 10.0 mi SSE 8.1 mph - N/A   Clear
10:15 AM 55.0 °F - 32.0 °F 42% 30.02 in 10.0 mi SSE 10.4 mph - N/A   Clear
10:35 AM 58.5 °F - 31.5 °F 36% 30.01 in 10.0 mi South 9.2 mph 16.1 mph N/A   Clear
10:55 AM 60.4 °F - 32.0 °F 34% 30.01 in 10.0 mi South 8.1 mph - N/A   Clear
11:15 AM 62.2 °F - 32.0 °F 32% 29.99 in 10.0 mi South 6.9 mph - N/A   Clear
11:35 AM 64.4 °F - 32.7 °F 31% 29.98 in 10.0 mi South 10.4 mph - N/A   Clear
11:55 AM 65.7 °F - 33.1 °F 30% 29.96 in 10.0 mi SSW 9.2 mph 17.3 mph N/A   Clear
12:15 PM 66.4 °F - 34.0 °F 30% 29.95 in 10.0 mi South 10.4 mph 16.1 mph N/A   Clear
12:35 PM 66.7 °F - 34.9 °F 31% 29.94 in 10.0 mi South 12.7 mph 19.6 mph N/A   Scattered Clouds
12:55 PM 67.5 °F - 36.3 °F 32% 29.92 in 10.0 mi South 16.1 mph 23.0 mph N/A   Clear
1:15 PM 68.5 °F - 37.0 °F 31% 29.91 in 10.0 mi South 10.4 mph 18.4 mph N/A   Clear
1:35 PM 69.1 °F - 37.9 °F 32% 29.90 in 10.0 mi South 10.4 mph 18.4 mph N/A   Clear
1:55 PM 69.6 °F - 38.7 °F 32% 29.89 in 10.0 mi South 12.7 mph 19.6 mph N/A   Clear
2:15 PM 70.0 °F - 39.4 °F 33% 29.88 in 10.0 mi South 11.5 mph 19.6 mph N/A   Clear
2:35 PM 70.9 °F - 39.7 °F 32% 29.87 in 10.0 mi South 15.0 mph 20.7 mph N/A   Clear
2:55 PM 70.9 °F - 40.3 °F 33% 29.87 in 10.0 mi South 13.8 mph 20.7 mph N/A   Clear
3:15 PM 71.1 °F - 41.0 °F 34% 29.86 in 10.0 mi South 8.1 mph 20.7 mph N/A   Clear
3:35 PM 70.9 °F - 41.0 °F 34% 29.86 in 10.0 mi South 11.5 mph 17.3 mph N/A   Clear
3:55 PM 70.5 °F - 41.7 °F 35% 29.86 in 10.0 mi South 11.5 mph 17.3 mph N/A   Clear
4:15 PM 69.8 °F - 42.1 °F 37% 29.86 in 10.0 mi South 11.5 mph 17.3 mph N/A   Clear
4:35 PM 68.9 °F - 42.6 °F 39% 29.86 in 10.0 mi South 10.4 mph - N/A   Clear
4:55 PM 67.6 °F - 42.8 °F 41% 29.86 in 10.0 mi South 9.2 mph - N/A   Clear
5:15 PM 65.7 °F - 43.0 °F 44% 29.87 in 10.0 mi South 6.9 mph - N/A   Clear
5:35 PM 64.2 °F - 43.3 °F 47% 29.87 in 10.0 mi SSE 5.8 mph - N/A   Clear
5:55 PM 63.1 °F - 43.7 °F 49% 29.87 in 10.0 mi SSE 5.8 mph - N/A   Clear
6:15 PM 62.6 °F - 44.1 °F 51% 29.87 in 10.0 mi SSE 5.8 mph - N/A   Clear
6:35 PM 63.1 °F - 45.1 °F 52% 29.88 in 10.0 mi South 6.9 mph - N/A   Clear
6:55 PM 62.6 °F - 45.5 °F 54% 29.88 in 10.0 mi SSE 5.8 mph - N/A   Clear
7:15 PM 60.4 °F - 45.0 °F 57% 29.88 in 10.0 mi SE 4.6 mph - N/A   Clear
7:35 PM 59.0 °F - 44.6 °F 59% 29.89 in 10.0 mi SE 3.5 mph - N/A   Clear
7:55 PM 57.6 °F - 44.4 °F 62% 29.89 in 10.0 mi SE 3.5 mph - N/A   Clear
8:15 PM 56.7 °F - 44.4 °F 64% 29.89 in 10.0 mi SE 4.6 mph - N/A   Clear
8:35 PM 55.2 °F - 44.1 °F 66% 29.89 in 10.0 mi ESE 3.5 mph - N/A   Clear
8:55 PM 54.1 °F - 43.7 °F 68% 29.89 in 10.0 mi ESE 3.5 mph - N/A   Clear
9:15 PM 53.6 °F - 43.7 °F 69% 29.89 in 10.0 mi SE 4.6 mph - N/A   Clear
9:35 PM 53.4 °F - 43.7 °F 70% 29.90 in 10.0 mi SE 3.5 mph - N/A   Clear
9:55 PM 54.5 °F - 44.1 °F 68% 29.89 in 10.0 mi SE 5.8 mph - N/A   Clear
10:15 PM 53.2 °F - 43.9 °F 71% 29.89 in 10.0 mi ESE 4.6 mph - N/A   Clear
10:35 PM 53.6 °F - 44.2 °F 71% 29.90 in 10.0 mi SE 6.9 mph - N/A   Clear
10:55 PM 53.8 °F - 44.6 °F 71% 29.90 in 10.0 mi SE 5.8 mph - N/A   Clear
11:15 PM 53.6 °F - 44.8 °F 72% 29.89 in 10.0 mi ESE 5.8 mph - N/A   Clear
11:35 PM 52.2 °F - 44.6 °F 75% 29.90 in 10.0 mi ESE 4.6 mph - N/A   Clear
11:55 PM 51.1 °F - 44.1 °F 77% 29.90 in 10.0 mi East 5.8 mph - N/A   Clear